Regional Weather Roundup
Issued by NWS

Home | Current Version | Previous Version | Text Only | Print | Product List | Glossary Off
Versions: 1 2 3 4 5 6 7 8 9 10 11 12 13 14 15 16 17 18 19 20 21 22 23 24 25 26 27 28 29 30 31 32 33 34 35 36 37 38 39 40 41 42 43 44 45 46 47 48 49 50

000
ASUS43 KIND 201900
RWRIN

WEATHER ROUNDUP FOR INDIANA
NATIONAL WEATHER SERVICE INDIANAPOLIS IN
300 PM EDT WED SEP 20 2017

NOTE: "FAIR" INDICATES FEW OR NO CLOUDS BELOW 12,000 FEET WITH NO
SIGNIFICANT WEATHER AND/OR OBSTRUCTIONS TO VISIBILITY.

* - STATION DOES NOT REPORT WEATHER SUCH AS PRECIPITATION OR FOG.

+ - STATION NOT QUALITY CONTROLLED BY THE NATIONAL WEATHER SERVICE.
    USE DATA WITH CAUTION...ESPECIALLY DEWPOINT AND RELATIVE
    HUMIDITY OBSERVATIONS.

INZ001>003-010>013-019-020-202000-
NORTHWEST INDIANA

CITY           SKY/WX    TMP DP  RH WIND       PRES   REMARKS
GARY /AIRPORT/ MOSUNNY   90  63  40 SW13      29.91F
KNOX *+        MOSUNNY   86  68  54 S7        29.94F
MICHIGAN CITY+ SUNNY     88  70  55 S7        29.94F
RENSSELAER +   MOSUNNY   86  59  39 S10       29.94F

$$

LMZ046-743>745-202000-
SOUTHERN LAKE MICHIGAN

STATION/POSITION TIME  TEMP    WIND        PRES    WAVE
                       AIR SEA DIR/SP/G            HT
                 (UTC) (F)     (DEG/KT/KT) (MB)    (FT)
BURNS HARBOR     1840   86     190/ 12/ 15 1013.5F
MICHIGAN CITY    1830   84     140/ 10/ 13   N/A
5NW MICH CITY    1850   78 70  160/  6/  8   N/A     1

$$

INZ004-005-014>016-021>024-202000-
NORTH CENTRAL INDIANA

CITY           SKY/WX    TMP DP  RH WIND       PRES   REMARKS
ELKHART        MOSUNNY   84  68  58 S7        29.98S
GOSHEN         SUNNY     84  68  58 SW6       29.98S
SOUTH BEND     MOSUNNY   84  71  65 VRB7      29.96F
WARSAW +       MOSUNNY   84  70  61 W3        29.99R

$$

INZ006>009-017-018-025>027-202000-
NORTHEAST INDIANA

CITY           SKY/WX    TMP DP  RH WIND       PRES   REMARKS
FORT WAYNE     MOSUNNY   84  67  56 SW6       29.99F
KENDALLVILLE + MOSUNNY   82  70  68 SW5       30.00F

$$

INZ028-029-035-036-043>045-051>053-202000-
WEST CENTRAL INDIANA

CITY           SKY/WX    TMP DP  RH WIND       PRES   REMARKS
LAFAYETTE      MOSUNNY   89  70  53 SW7       29.94S
TERRE HAUTE    SUNNY     91  68  46 SW13      29.95F HX  95

$$

INZ030>032-037>040-046>048-054>057-064-065-202000-
CENTRAL INDIANA

CITY           SKY/WX    TMP DP  RH WIND       PRES   REMARKS
ANDERSON       PTSUNNY   82  70  65 S12       30.00
COLUMBUS       MOSUNNY   84  66  54 S9        29.99F
GREENWOOD *+   MOSUNNY   90  72  56 S5        29.99F HX  97
INDIANAPOLIS   MOSUNNY   87  69  54 S7        29.97F
-EAGLE CREEK   MOSUNNY   87  67  51 S7        29.97F
KOKOMO +       PTSUNNY   85  72  65 S13       29.98F
MT COMFORT *+    N/A    N/A N/A N/A MISG        N/A
SHELBYVILLE    PTSUNNY   87  68  52 S7        29.98F

$$

INZ033-034-041-042-049-050-058-059-202000-
EAST CENTRAL INDIANA

CITY           SKY/WX    TMP DP  RH WIND       PRES   REMARKS
MUNCIE         MOSUNNY   87  68  52 SW8       29.99F
RICHMOND +     MOSUNNY   81  68  65 W8        30.02F

$$

INZ060-061-067>069-081>083-085>088-202000-
SOUTHWEST INDIANA

CITY           SKY/WX    TMP DP  RH WIND       PRES   REMARKS
EVANSVILLE     MOSUNNY   88  71  57 S8        29.96F

$$

INZ062-063-066-070>080-084-089>092-202000-
SOUTH CENTRAL AND SOUTHEAST INDIANA

CITY           SKY/WX    TMP DP  RH WIND       PRES   REMARKS
BLOOMINGTON    MOSUNNY   89  66  46 SW9       29.98F
MADISON *+     MOSUNNY   86  68  54 CALM      30.03F
SEYMOUR +      PTSUNNY   86  70  58 SE9       29.98F

$$





USA.gov is the U.S. government's official web portal to all federal, state and local government web resources and services.